{"data":{"norad_id":63485,"epoch":"2026-09-20T23:05:25.391616Z","epoch_age_seconds":115764,"freshness":"FRESH","line1":"1 63485U 25070AB  26263.96209944  .00008480  00000+0  31720-3 0  9997","line2":"2 63485  42.9964 236.6959 0000274 302.1202  57.9623 15.27590090 82847","mean_motion":15.2759009,"eccentricity":2.74e-5,"inclination_deg":42.9964,"raan_deg":236.6959,"arg_perigee_deg":302.1202,"mean_anomaly_deg":57.9623,"bstar":0.0003172,"rev_number":8284,"period_min":94.266126065272,"perigee_km":482.8308874449,"apogee_km":483.20687878729,"semimajor_km":6861.1558831161,"source":"CELESTRAK","updated_at":"2026-09-21T09:00:35.012354Z"}}